Regional Weather Roundup
Issued by NWS

Home | Current Version | Previous Version | Graphics & Text | Print | Product List | Glossary Off
Versions: 1 2 3 4 5 6 7 8 9 10 11 12 13 14 15 16 17 18 19 20 21 22 23 24 25 26 27 28 29 30 31 32 33 34 35 36 37 38 39 40 41 42 43 44 45 46 47 48 49 50

281
ASUS43 KFSD 181505
RWRSD

SOUTH DAKOTA HOURLY REGIONAL WEATHER ROUNDUP
NATIONAL WEATHER SERVICE ABERDEEN SD
900 AM CST WED JAN 18 2017

...SATELLITE DATA IS USED TO AUGMENT CLOUD COVER ABOVE 12000 FEET...

NOTE: "FAIR" INDICATES FEW OR NO CLOUDS BELOW 12,000 FEET WITH NO
SIGNIFICANT WEATHER AND/OR OBSTRUCTION TO VISIBILITY.

SDZ001>005-009-010-012>017-181600-
...NORTHWEST AND NORTH CENTRAL SOUTH DAKOTA...

CITY           SKY/WX    TMP DP  RH WIND       PRES   REMARKS
BUFFALO          N/A     34  21  59 VRB7      29.68S WCI  28
FAITH            N/A     28  20  71 NW5       29.77F WCI  23
MOBRIDGE       CLOUDY    19  11  70 E9        29.76F WCI   8
$$

SDZ012>016-024>037-041>051-057-063-181600-
...SOUTHWEST AND SOUTH CENTRAL SOUTH DAKOTA...

CITY           SKY/WX    TMP DP  RH WIND       PRES   REMARKS
RAPID CITY     CLOUDY    27  18  69 E3        29.77S
ELLSWORTH AFB  CLOUDY    36  23  60 W3        29.76S
CUSTER         CLOUDY    41  18  39 W9        29.83F
PHILIP         CLOUDY    24  17  74 CALM      29.80F
PINE RIDGE     CLOUDY    29  17  61 W8        29.83F WCI  21
PIERRE         CLOUDY    14  11  87 CALM      29.82S
WINNER         FAIR      29  19  66 SW5       29.82F WCI  24
$$

SDZ004>011-016>023-039-040-181600-
...NORTHEAST SOUTH DAKOTA...

CITY           SKY/WX    TMP DP  RH WIND       PRES   REMARKS
ABERDEEN       CLOUDY    17  11  77 S12       29.82F WCI   4
WATERTOWN      CLOUDY    19  16  88 S8        29.84R WCI   9
BROOKINGS      CLOUDY    22  21  96 SE6       29.85F WCI  14
SISSETON         N/A     36  22  56 SW6       29.79F WCI  31
$$

SDZ017-020-022-023-036>040-048>070-181600-
...SOUTHEAST SOUTH DAKOTA...

CITY           SKY/WX    TMP DP  RH WIND       PRES   REMARKS
SIOUX FALLS    CLOUDY    24  22  91 NW3       29.90R
YANKTON        CLOUDY    28  25  86 NE3       29.89S
MITCHELL       CLOUDY    20  18  92 E3        29.87F
HURON          CLOUDY    18  16  92 SE7       29.85S WCI   9
CHAMBERLAIN    CLOUDY    20  17  91 CALM      29.83F
$$




USA.gov is the U.S. government's official web portal to all federal, state and local government web resources and services.